Wind_Speed
15 15 14 14 16 17 18 19 19 18 16 14 14 14 14 13 13 12 11 12 13 11 11 10 11 13 11 12 14 15 15 16 17 17 17 15 16 16 18 20 19 18 17
16 14 14 16 16 18 19 18 19 18 17 17 16 17 17 16 15 15 15 14 13 12 13 13 14 14 15 16 15 16 18 17 17 19 21 21 20 19 17 18 19 20 17
14 13 13 13 15 18 20 20 19 18 17 18 16 16 16 15 15 17 15 13 12 13 15 15 14 16 17 17 17 18 19 20 20 20 20 21 22 21 21 20 17 18 17
13 12 13 12 13 15 17 19 20 17 17 17 17 16 15 16 15 14 13 12 13 13 15 17 17 18 20 21 22 22 21 22 23 22 22 22 21 21 22 22 22 19 19
13 11 11 12 12 13 16 18 20 18 17 16 15 14 13 13 13 13 14 15 16 18 20 22 23 23 24 25 24 23 24 26 26 26 25 25 23 21 20 24 23 24 23
13 12 12 9 9 10 12 15 17 16 14 13 11 10 11 12 14 15 15 15 16 17 19 20 22 24 23 23 25 26 27 26 26 27 28 27 27 25 24 22 24 26 26
14 15 15 13 12 11 11 11 12 11 11 10 10 9 8 9 10 13 16 19 21 22 23 24 24 24 26 26 28 29 29 29 29 27 28 27 28 27 26 25 26 27 25
16 18 18 15 13 12 10 10 10 10 9 8 7 8 11 14 15 17 20 22 24 25 26 27 28 29 31 33 35 35 35 35 36 35 36 33 30 27 30 29 29 28 29
18 19 19 18 15 16 14 13 13 12 10 8 10 12 14 16 18 20 22 25 27 28 29 31 32 33 34 37 38 41 40 40 41 40 39 39 37 34 32 31 33 32 32
21 18 19 19 17 17 17 17 16 14 13 12 13 15 18 20 21 22 23 25 29 29 30 33 34 35 37 39 42 43 43 39 39 40 42 40 42 41 38 38 37 36 34
22 22 21 21 20 19 20 21 20 18 17 17 19 20 20 20 21 23 25 29 31 32 31 30 33 36 37 38 40 41 42 42 42 38 38 38 37 38 39 39 39 39 36
26 24 24 24 24 25 25 25 24 23 23 24 26 25 21 21 22 25 27 31 33 33 31 30 29 32 35 38 41 45 47 46 42 39 35 34 34 32 31 33 35 36 37
27 29 27 27 29 29 29 29 28 27 28 31 30 29 25 22 23 26 30 31 33 31 29 27 31 37 37 37 36 34 32 37 40 39 35 32 31 30 29 30 31 32 35
26 26 27 32 30 32 34 33 31 31 32 33 34 32 31 29 26 26 28 31 32 29 24 28 30 32 30 28 26 25 25 29 32 34 32 30 26 29 27 27 29 30 33
23 27 28 25 24 29 35 39 38 39 38 37 35 33 31 32 30 30 28 30 28 25 23 24 27 26 29 25 23 22 15 16 16 19 23 26 27 26 25 26 28 31 32
26 27 30 31 32 35 36 36 40 41 43 41 41 42 33 36 32 34 33 28 25 21 22 23 26 22 26 28 18 19 13 15 13 19 21 24 24 23 25 27 28 29 31
28 31 32 32 36 38 38 34 37 40 42 45 44 48 41 50 47 55 45 24 19 19 19 19 20 21 22 20 22 16 9 11 11 12 13 15 20 22 22 20 21 24 27
29 31 33 34 37 38 42 39 37 35 32 37 38 35 39 32 26 36 23 18 17 15 15 14 15 17 19 18 19 21 15 10 9 8 8 12 9 12 13 19 18 18 21
29 30 32 35 37 38 37 37 39 35 32 31 30 32 38 29 21 18 15 14 13 13 11 12 13 13 14 16 17 17 19 18 12 6 8 7 12 16 15 17 16 19 23
28 30 32 29 28 27 28 31 37 32 33 35 33 33 32 22 16 15 14 12 11 10 8 10 10 10 11 12 13 14 14 16 19 18 10 8 10 8 12 14 17 19 22
28 30 26 28 25 21 25 33 34 31 27 27 22 23 21 14 14 15 14 13 11 8 8 9 9 10 11 11 12 12 12 13 13 12 12 11 11 11 10 10 10 9 9
27 30 26 26 25 27 30 33 32 29 26 19 18 28 17 14 14 15 13 11 11 9 8 8 9 9 10 10 11 11 11 11 12 11 11 12 12 12 11 11 11 11 12
24 26 23 24 26 26 32 28 25 26 25 25 21 17 14 14 13 13 12 10 10 9 7 8 6 6 7 8 10 11 12 12 12 12 13 13 13 13 14 14 14 16 13
20 21 22 15 18 27 27 26 23 21 22 21 17 16 12 10 11 12 11 11 9 7 7 7 5 5 4 4 6 8 10 10 11 12 13 14 16 16 17 17 17 16 17
19 21 23 21 18 22 24 24 22 22 19 13 15 14 12 12 11 11 10 10 9 8 7 8 8 8 9 13 13 16 15 13 15 16 16 15 17 19 19 19 20 20 21
19 20 24 22 24 21 21 20 18 17 16 15 14 13 13 11 12 13 13 12 11 12 11 12 13 17 18 21 20 24 22 24 23 20 22 23 21 21 24 25 25 26 27
Wind_Direction
238 235 226 218 224 223 217 214 217 224 232 240 226 232 238 246 245 245 251 260 255 258 271 264 263 265 266 268 275 282 283 277 270 263 264 271 266 267 274 272 271 272 271
234 231 239 231 217 218 220 220 223 229 233 234 233 232 235 251 254 260 262 268 262 257 273 278 267 267 273 282 276 275 277 282 281 272 269 270 269 269 274 276 275 274 272
234 241 247 245 238 229 221 219 221 224 228 230 240 241 245 256 254 265 271 272 273 273 275 277 276 276 281 284 285 280 280 278 279 276 274 271 269 269 275 278 279 269 268
229 239 248 247 243 238 231 226 227 228 229 231 235 243 248 256 266 272 275 277 280 282 284 286 286 285 285 287 288 288 285 284 281 280 276 273 272 268 269 273 275 271 260
228 234 241 244 245 241 233 229 225 229 233 233 238 247 254 263 271 278 286 288 289 285 284 284 284 283 282 282 280 282 282 279 278 281 280 279 272 271 266 265 269 268 262
226 225 227 242 242 238 229 226 225 227 228 233 240 247 254 265 273 277 278 283 287 288 290 289 288 286 284 280 281 281 281 276 275 275 274 274 279 280 277 271 265 267 267
224 227 229 239 245 233 229 224 218 213 209 219 230 231 236 252 269 279 288 293 291 292 290 287 283 279 279 280 280 280 280 279 277 276 276 275 273 274 271 270 270 271 268
233 230 234 236 237 234 220 209 211 218 193 190 213 251 273 285 286 291 296 294 293 294 293 291 290 287 284 282 281 280 279 277 276 278 277 275 273 271 269 268 267 268 267
253 240 236 237 237 225 217 212 195 187 202 231 260 277 290 296 292 296 297 297 298 298 298 297 294 293 289 286 283 282 280 277 278 275 272 273 272 270 270 269 267 268 268
259 252 240 237 236 231 219 209 206 218 235 249 264 284 298 303 298 300 301 302 303 302 298 297 293 286 284 283 281 279 277 275 274 271 271 270 268 268 267 269 270 269 268
239 249 242 239 230 223 214 212 219 230 244 255 264 271 282 290 291 296 301 309 308 305 301 297 294 297 295 290 285 283 281 279 273 266 267 270 270 268 264 264 266 266 266
228 239 243 240 238 231 225 224 230 238 248 256 259 264 271 283 288 293 303 308 308 305 304 301 302 305 303 297 287 279 273 268 267 269 266 266 268 269 264 259 261 262 262
225 232 235 241 238 239 237 237 239 243 249 256 265 269 269 274 279 288 302 307 308 308 303 301 310 313 306 302 294 288 278 267 261 260 263 263 263 264 263 260 260 262 260
221 225 238 236 240 246 242 244 248 253 256 263 267 271 276 276 273 287 300 307 308 305 298 315 320 323 318 315 313 303 283 272 265 254 252 258 262 259 262 263 262 262 263
237 230 229 232 235 240 243 246 252 255 259 261 267 269 272 278 279 284 296 302 304 298 304 312 322 332 336 319 309 325 317 273 261 258 255 255 255 258 259 262 263 263 266
237 236 234 233 238 242 251 245 245 252 259 256 264 261 258 271 274 290 293 300 297 292 303 309 322 327 335 348 322 317 311 300 274 255 246 247 254 261 265 262 263 265 268
236 236 238 237 239 241 245 239 243 252 258 261 267 261 262 282 272 282 279 290 283 289 295 306 327 335 346 348 352 312 316 313 309 310 269 265 260 258 260 266 265 273 274
234 234 235 237 238 240 242 242 240 244 252 256 263 267 276 276 252 251 269 272 276 287 292 313 324 338 354 357 1 7 347 315 312 323 272 281 289 263 273 272 262 271 280
237 237 239 240 242 246 248 245 240 232 235 244 251 259 260 250 254 266 265 263 268 278 298 309 318 335 348 360 9 14 19 19 360 292 308 320 307 276 276 296 288 298 284
241 242 246 249 250 257 255 247 235 228 238 247 249 238 242 247 263 263 257 257 259 272 289 299 312 326 338 351 1 9 19 22 32 40 33 343 340 311 292 295 289 284 286
251 255 255 247 254 255 239 228 220 233 227 221 224 236 239 252 259 253 252 248 255 272 282 294 303 312 323 333 342 349 358 11 17 20 20 12 10 17 19 20 20 12 5
255 261 260 255 254 252 243 229 221 207 208 217 228 236 231 234 233 245 243 242 256 265 277 286 298 317 321 327 334 338 344 350 360 3 2 4 4 2 357 349 346 340 327
259 266 266 254 258 237 206 200 191 192 196 221 230 233 222 226 237 240 242 244 251 256 258 274 293 316 333 342 345 354 356 352 353 355 357 360 358 353 348 343 339 333 329
257 254 249 249 207 184 176 177 187 204 218 221 201 207 241 227 233 237 232 229 228 236 251 260 271 289 303 332 341 341 347 345 344 344 348 347 348 346 347 345 339 332 330
248 243 224 210 186 189 188 188 196 209 216 188 205 215 212 212 205 210 208 207 211 213 229 244 259 271 286 294 309 312 310 310 312 316 319 322 323 322 325 323 321 318 315
240 229 212 211 225 210 197 198 189 200 198 198 207 200 198 201 202 203 203 204 217 232 248 269 277 281 287 294 294 304 300 303 300 306 307 301 300 305 310 307 305 304 302
Height
3173 3174 3175 3176 3178 3180 3181 3183 3185 3187 3190 3193 3195 3197 3198 3200 3200 3202 3202 3203 3202 3203 3203 3203 3203 3204 3204 3204 3203 3203 3203 3203 3203 3203 3202 3202 3202 3202 3202 3201 3201 3201 3201
3171 3172 3173 3174 3174 3176 3178 3180 3182 3184 3187 3189 3192 3193 3194 3196 3198 3199 3200 3200 3200 3200 3200 3200 3200 3200 3200 3200 3200 3200 3199 3198 3199 3199 3199 3198 3198 3198 3197 3197 3198 3197 3196
3169 3170 3171 3171 3172 3173 3175 3177 3178 3181 3183 3186 3189 3191 3192 3193 3194 3195 3196 3196 3197 3197 3197 3197 3197 3197 3197 3197 3196 3195 3195 3194 3194 3194 3194 3193 3193 3193 3192 3192 3193 3193 3192
3167 3167 3168 3169 3169 3170 3171 3174 3177 3178 3180 3183 3185 3187 3189 3190 3191 3192 3193 3193 3194 3194 3194 3194 3194 3193 3193 3192 3191 3191 3190 3189 3188 3188 3188 3187 3187 3187 3187 3187 3187 3187 3187
3164 3165 3166 3167 3167 3167 3168 3171 3173 3175 3177 3180 3182 3184 3186 3187 3188 3189 3190 3190 3190 3190 3189 3189 3188 3188 3187 3186 3185 3185 3184 3183 3182 3182 3182 3182 3181 3181 3181 3180 3181 3181 3181
3162 3163 3164 3165 3166 3166 3166 3168 3170 3172 3175 3179 3181 3182 3183 3184 3185 3186 3186 3185 3185 3185 3185 3184 3184 3183 3182 3181 3180 3179 3177 3175 3175 3174 3174 3174 3175 3176 3176 3174 3174 3174 3175
3160 3161 3162 3163 3164 3164 3166 3167 3169 3171 3173 3176 3178 3179 3180 3181 3182 3183 3182 3182 3181 3180 3179 3178 3177 3176 3175 3174 3172 3171 3170 3168 3167 3167 3166 3167 3167 3168 3168 3168 3168 3168 3169
3157 3158 3159 3160 3162 3163 3165 3167 3169 3171 3172 3174 3176 3178 3179 3179 3179 3179 3178 3177 3176 3175 3173 3171 3170 3169 3168 3166 3164 3162 3159 3158 3158 3158 3157 3158 3159 3159 3159 3160 3159 3160 3160
3155 3155 3156 3158 3159 3160 3162 3164 3166 3168 3170 3172 3174 3175 3176 3176 3176 3175 3174 3172 3170 3168 3167 3165 3162 3161 3159 3156 3153 3150 3150 3149 3149 3148 3147 3147 3148 3150 3150 3150 3150 3151 3151
3151 3152 3153 3154 3156 3158 3160 3162 3164 3166 3168 3168 3170 3171 3171 3172 3172 3171 3169 3167 3165 3164 3160 3158 3155 3151 3147 3145 3142 3139 3136 3137 3137 3136 3135 3135 3136 3138 3140 3140 3141 3140 3142
3144 3147 3149 3150 3151 3154 3156 3158 3160 3161 3163 3164 3164 3164 3164 3164 3165 3164 3163 3161 3159 3157 3154 3150 3147 3141 3139 3136 3133 3129 3126 3125 3124 3123 3123 3124 3124 3125 3127 3129 3130 3130 3131
3138 3140 3143 3145 3147 3149 3151 3152 3155 3156 3157 3158 3157 3157 3157 3157 3158 3158 3157 3154 3152 3149 3145 3142 3140 3136 3130 3124 3117 3113 3110 3109 3110 3112 3112 3113 3114 3114 3115 3117 3120 3121 3122
3131 3133 3136 3139 3141 3142 3145 3147 3148 3149 3150 3151 3151 3151 3151 3150 3150 3151 3150 3147 3145 3141 3137 3135 3132 3128 3120 3112 3105 3100 3096 3095 3097 3098 3102 3103 3105 3105 3106 3107 3109 3111 3113
3124 3126 3129 3131 3134 3137 3137 3139 3140 3141 3141 3142 3143 3145 3144 3143 3142 3142 3142 3139 3136 3134 3132 3129 3124 3118 3111 3104 3098 3091 3088 3087 3086 3088 3090 3093 3096 3096 3098 3099 3100 3102 3103
3116 3118 3119 3121 3123 3124 3124 3130 3132 3132 3134 3134 3136 3138 3137 3136 3136 3135 3134 3132 3130 3128 3126 3123 3119 3113 3105 3097 3092 3088 3084 3082 3081 3082 3084 3086 3087 3088 3090 3091 3092 3093 3094
3108 3109 3111 3112 3113 3115 3117 3119 3121 3123 3124 3125 3128 3129 3128 3128 3129 3128 3127 3125 3124 3122 3120 3118 3113 3108 3102 3094 3088 3085 3082 3080 3078 3077 3078 3078 3080 3081 3084 3085 3086 3086 3087
3098 3099 3101 3103 3104 3106 3107 3108 3109 3111 3113 3117 3119 3119 3119 3119 3120 3120 3124 3119 3118 3117 3115 3113 3109 3105 3098 3093 3088 3083 3080 3077 3075 3073 3072 3073 3074 3075 3077 3077 3078 3079 3080
3088 3090 3091 3093 3094 3095 3096 3096 3098 3100 3103 3105 3106 3108 3110 3107 3106 3113 3113 3112 3112 3111 3111 3108 3105 3102 3098 3092 3088 3084 3078 3075 3072 3069 3069 3069 3070 3070 3071 3072 3072 3073 3073
3079 3081 3082 3082 3083 3084 3084 3085 3087 3090 3092 3095 3097 3101 3107 3106 3104 3103 3104 3106 3106 3106 3105 3104 3102 3100 3096 3093 3088 3084 3079 3074 3069 3067 3067 3067 3066 3066 3067 3067 3066 3067 3067
3069 3070 3072 3073 3073 3074 3075 3076 3078 3080 3084 3089 3092 3095 3099 3098 3096 3098 3100 3101 3102 3102 3100 3100 3099 3097 3095 3092 3088 3085 3080 3076 3072 3068 3067 3066 3064 3063 3063 3063 3063 3062 3061
3059 3061 3063 3065 3065 3066 3068 3068 3070 3074 3079 3085 3087 3089 3090 3090 3091 3094 3096 3097 3098 3097 3096 3096 3096 3094 3093 3090 3087 3084 3081 3077 3074 3071 3069 3067 3065 3063 3061 3059 3058 3058 3057
3051 3051 3054 3055 3056 3057 3057 3059 3063 3068 3074 3076 3079 3083 3083 3084 3088 3090 3091 3094 3094 3094 3093 3092 3092 3091 3091 3089 3087 3083 3080 3077 3074 3070 3069 3067 3065 3063 3062 3060 3059 3058 3057
3044 3044 3045 3046 3046 3046 3050 3055 3059 3064 3070 3074 3075 3077 3078 3080 3083 3086 3088 3089 3090 3090 3089 3089 3088 3088 3088 3086 3085 3082 3078 3077 3073 3070 3068 3067 3065 3063 3062 3061 3059 3056 3055
3037 3038 3039 3039 3039 3042 3046 3051 3057 3062 3066 3069 3073 3077 3078 3078 3081 3083 3084 3086 3086 3087 3087 3086 3085 3085 3083 3082 3082 3079 3077 3074 3072 3070 3068 3066 3064 3062 3061 3060 3058 3057 3055
3029 3031 3034 3037 3040 3042 3045 3049 3054 3058 3062 3067 3072 3075 3076 3076 3079 3080 3080 3083 3084 3083 3083 3083 3081 3081 3079 3080 3077 3075 3074 3072 3070 3067 3065 3064 3061 3060 3059 3057 3056 3054 3052
3023 3025 3029 3032 3036 3040 3044 3047 3052 3056 3061 3066 3070 3071 3073 3074 3075 3077 3077 3079 3080 3079 3079 3078 3078 3076 3076 3076 3073 3071 3069 3067 3064 3062 3061 3059 3056 3055 3053 3051 3050 3048 3047